Location: Roc des P�zouls
(43.9667°N, 3.5500°E)
Time: 21:54:18
(UTC+00:00)

STARLINK-80 - Pass Details

Date: 14 November 2019
Orbit: 492 x 497 km, 53.0° (Epoch: 10 December)

Event Time Altitude Azimuth Distance (km) Brightness Sun altitude
Exits shadow 05:02:12 19° 217° (SW) 1,243 5.1 -17.4°
Maximum altitude 05:04:49 60° 141° (SE) 570 3.8 -17.0°
Drops below altitude 10° 05:08:37 10° 61° (ENE) 1,701 6.9 -16.3°
Sets 05:10:49 0° 58° (ENE) 2,588 7.8 -15.9°
